Weather History for KAFF - January, 2014

Change the Weather History Date:

Tuesday, January 21, 2014

  Actual Average (KCOS) Record (KCOS)
Temperature  
Mean Temperature 36 °F 31 °F  
Max Temperature 59 °F 43 °F 70 °F (2009)
Min Temperature 12 °F 18 °F -20 °F (1930)
Degree Days  
Heating Degree Days 30 34  
Month to date heating degree days 724  
Since 1 July heating degree days 3296  
Cooling Degree Days 0 0  
Month to date cooling degree days 0  
Year to date cooling degree days 0  
Moisture  
Dew Point -10 °F    
Average Humidity 25    
Maximum Humidity 77    
Minimum Humidity 4    
Precipitation  
Precipitation 0.00 in 0.01 in 0.13 in (1898)
Month to date precipitation 0.21  
Year to date precipitation 0.21  
Snow  
Snow 0.00 in 0.10 in 2.50 in (2008)
Month to date snowfall 3.7  
Since 1 July snowfall 17.2  
Snow Depth -    
Sea Level Pressure  
Sea Level Pressure 30.25 in    
Wind  
Wind Speed 11 mph (NNW)    
Max Wind Speed 21 mph    
Max Gust Speed 31 mph    
Visibility 10 miles    
Events      
T = Trace of Precipitation, MM = Missing Value Source: NWS Daily Summary

Daily Weather History Graph

Daily Weather History Graph

Search for Another Location

Airport or City:

Trip Planner

Search our weather history database for the weather conditions in past years. The results will help you decide how hot, cold, wet, or windy it might be!

Date:

Astronomy

Jan. 21, 2014 Rise Set
Actual Time 7:13 AM MST 5:07 PM MST
Civil Twilight 6:44 AM MST 5:36 PM MST
Nautical Twilight 6:12 AM MST 6:09 PM MST
Astronomical Twilight 5:40 AM MST 6:41 PM MST
Moon 10:40 PM MST (1/21) 9:47 AM MST (1/21)
Length of Visible Light 10h 51m
Length of Day
9h 54m
Waning Gibbous, 74% of the Moon is Illuminated
Jan 21
Waning Gibbous
Jan 23
Last Quarter
Jan 30
New
Feb 6
First Quarter
Feb 14
Full

Hourly Weather History & Observations

Time (MST) Temp. Windchill Dew Point Humidity Pressure Visibility Wind Dir Wind Speed Gust Speed Precip Events Conditions
12:58 AM 15.4 °F 2.3 °F 9.3 °F 77% 30.45 in 10.0 mi North 11.5 mph - N/A   Clear
1:58 AM 14.0 °F 1.2 °F 7.9 °F 77% 30.43 in 10.0 mi North 10.4 mph - N/A   Clear
2:58 AM 12.2 °F -0.2 °F 6.3 °F 77% 30.41 in 10.0 mi North 9.2 mph - N/A   Clear
3:58 AM 14.7 °F 1.4 °F 7.0 °F 71% 30.38 in 10.0 mi North 11.5 mph - N/A   Clear
4:58 AM 17.1 °F 6.6 °F 2.8 °F 54% 30.40 in 10.0 mi NNE 8.1 mph - N/A   Clear
5:58 AM 21.6 °F 9.9 °F -0.9 °F 37% 30.36 in 10.0 mi NE 11.5 mph - N/A   Clear
6:58 AM 28.2 °F 24.4 °F -7.8 °F 21% 30.36 in 10.0 mi Variable 3.5 mph - N/A   Clear
7:45 AM 37.4 °F 29.3 °F -16.6 °F 9% 30.23 in 10.0 mi WNW 12.7 mph 25.3 mph N/A   Clear
7:58 AM 37.8 °F 29.8 °F -6.5 °F 15% 30.32 in 10.0 mi ENE 12.7 mph - N/A   Clear
8:58 AM 45.9 °F 42.3 °F -16.6 °F 7% 30.27 in 10.0 mi North 6.9 mph - N/A   Clear
9:58 AM 53.2 °F - -26.3 °F 4% 30.25 in 10.0 mi NW 15.0 mph 20.7 mph N/A   Clear
10:46 AM 55.4 °F - -25.6 °F 4% 30.21 in 10.0 mi NW 11.5 mph 26.5 mph N/A   Clear
10:58 AM 55.6 °F - -24.7 °F 4% 30.22 in 10.0 mi NW 13.8 mph 23.0 mph N/A   Clear
11:58 AM 56.5 °F - -19.5 °F 4% 30.19 in 10.0 mi NW 15.0 mph 19.6 mph N/A   Clear
12:12 PM 57.2 °F - -23.8 °F 4% 30.17 in 10.0 mi West 19.6 mph 31.1 mph N/A   Clear
12:58 PM 59.0 °F - -22.2 °F 4% 30.15 in 10.0 mi WNW 20.7 mph 31.1 mph N/A   Clear
1:58 PM 59.2 °F - -20.9 °F 4% 30.13 in 10.0 mi West 19.6 mph 27.6 mph N/A   Clear
2:58 PM 58.5 °F - -17.0 °F 4% 30.15 in 10.0 mi WNW 17.3 mph 25.3 mph N/A   Clear
3:58 PM 56.7 °F - -18.2 °F 4% 30.13 in 10.0 mi NW 12.7 mph 26.5 mph N/A   Clear
4:58 PM 49.8 °F - -18.9 °F 5% 30.17 in 10.0 mi North 11.5 mph - N/A   Clear
5:58 PM 46.9 °F - -17.5 °F 6% 30.19 in 10.0 mi North 2.3 mph - N/A   Clear
6:58 PM 36.1 °F 28.7 °F -7.8 °F 15% 30.21 in 10.0 mi NNE 10.4 mph - N/A   Clear
7:58 PM 34.0 °F 28.0 °F -5.6 °F 18% 30.20 in 10.0 mi North 6.9 mph - N/A   Clear
8:58 PM 34.7 °F 31.8 °F -2.6 °F 20% 30.15 in 10.0 mi North 3.5 mph - N/A   Clear
9:58 PM 23.0 °F 13.9 °F -1.8 °F 34% 30.17 in 10.0 mi North 8.1 mph - N/A   Clear
10:58 PM 21.0 °F 12.4 °F 0.5 °F 41% 30.17 in 10.0 mi North 6.9 mph - N/A   Clear
11:58 PM 20.8 °F 16.0 °F 1.0 °F 42% 30.17 in 10.0 mi NNE 3.5 mph - N/A   Clear